This is the latest recevied weather packets stored in our database for station/object K7KRJ-10. If no packets are shown the sender has not sent any weather packets the latest 10 day(s).
| Time | Temp. | Humidity | Pressure | Rain* | Wind** | Luminosity | Snow |
|---|---|---|---|---|---|---|---|
| 1777139779 | 25° C | 23% | 1008.4 hPa | 0 mm | - | 393 W/m² | - |
| 1777138879 | 25° C | 23% | 1008.3 hPa | 0 mm | - | 376 W/m² | - |
| 1777137979 | 24.44° C | 23% | 1008.3 hPa | 0 mm | - | 321 W/m² | - |
| 1777137075 | 24.44° C | 23% | 1008.4 hPa | 0 mm | - | 344 W/m² | - |
| 1777136172 | 23.89° C | 24% | 1008.2 hPa | 0 mm | - | 312 W/m² | - |
| 1777135272 | 23.89° C | 24% | 1008.1 hPa | 0 mm | - | 343 W/m² | - |
| 1777134368 | 23.33° C | 24% | 1008 hPa | 0 mm | - | 314 W/m² | - |
| 1777133462 | 23.33° C | 24% | 1007.8 hPa | 0 mm | - | 388 W/m² | - |
| 1777132560 | 23.33° C | 24% | 1007.8 hPa | 0 mm | - | 449 W/m² | - |
| 1777131657 | 22.78° C | 24% | 1007.7 hPa | 0 mm | - | 385 W/m² | - |
| 1777130753 | 22.22° C | 24% | 1007.7 hPa | 0 mm | - | 341 W/m² | - |
| 1777129853 | 21.67° C | 25% | 1007.7 hPa | 0 mm | - | 250 W/m² | - |
| 1777128950 | 21.67° C | 26% | 1007.8 hPa | 0 mm | - | 220 W/m² | - |
| 1777128046 | 21.11° C | 26% | 1007.5 hPa | 0 mm | - | 289 W/m² | - |
| 1777127142 | 21.11° C | 26% | 1007.7 hPa | 0 mm | - | 215 W/m² | - |
| 1777126241 | 20.56° C | 27% | 1007.5 hPa | 0 mm | - | 180 W/m² | - |
| 1777125342 | 20.56° C | 30% | 1007.5 hPa | 0 mm | - | 120 W/m² | - |
| 1777124439 | 20.56° C | 29% | 1007.1 hPa | 0 mm | - | 83 W/m² | - |
| 1777123535 | 20° C | 30% | 1006.9 hPa | 0 mm | - | 58 W/m² | - |
| 1777122636 | 19.44° C | 30% | 1006.7 hPa | 0 mm | - | 34 W/m² | - |
| 1777121736 | 19.44° C | 29% | 1006.4 hPa | 0 mm | - | 11 W/m² | - |
| 1777120831 | 20° C | 28% | 1006.4 hPa | 0 mm | - | 2 W/m² | - |
| 1777119929 | 19.44° C | 28% | 1006.3 hPa | 0 mm | - | 0 W/m² | - |
| 1777119028 | 19.44° C | 28% | 1006.5 hPa | 0 mm | - | 0 W/m² | - |
| 1777118122 | 19.44° C | 28% | 1006.4 hPa | 0 mm | - | 0 W/m² | - |
* Rain latest hour (hover to see other rain measurements)
** Current wind speed in m/s (hover to see current wind gust speed)